User: anonymous   Login
Location: Banff
(51.1667°N, 115.5667°W)
Time: 12:20:15
(UTC+00:00)
Language:

Courier 1B - Orbit

View from above orbital plane
View from above orbital plane
View from above satellite
View from above satellite

Ground track
Ground track

The orbit data is extracted from the following two-line orbital elements,

1 00058U 60013A   22275.86868819  .00000104  00000-0  26922-4 0  9995
2 00058  28.3263 166.1682 0165017 162.3634 198.2723 13.46338752 51543
Epoch (UTC): 02 October 2022 20:50:54
Eccentricity: 0.0165017
inclination: 28.3263°
perigee height: 962 km
apogee height: 1209 km
right ascension of ascending node: 166.1682°
argument of perigee: 162.3634°
revolutions per day: 13.46338752
mean anomaly at epoch: 198.2723°
orbit number at epoch: 5154

The dashed part of the orbit path shows where the satellite is in the earth's shadow,  

DLR